EW4427 Weather Reports


Display with metric or nautical units.
time (UTC)temp
F
wind
direction
speed
MPH
gust
MPH
rain 1hr
in
rain 24hr
in
rain mn
in
humidity
%
barometer
mb
20260903182548 74 171 0.0 2.0 0.00 0.01 0.00 96 1014.0
20260903182050 74 0 0.0 2.0 0.00 0.01 0.00 96 1014.1
20260903181600 74 171 0.0 4.0 0.00 0.01 0.00 96 1014.1
20260903181046 74 171 1.0 4.0 0.00 0.01 0.00 96 1014.1
20260903180546 73 179 0.0 4.0 0.00 0.01 0.00 96 1014.0
20260903180105 73 61 0.0 3.0 0.00 0.01 0.00 96 1014.2
20260903175547 73 0 0.0 3.0 0.00 0.01 0.00 95 1014.1
20260903175046 73 57 0.0 3.0 0.00 0.01 0.00 95 1014.0
20260903174601 73 5 0.0 3.0 0.00 0.01 0.00 95 1014.3
20260903174045 73 22 0.0 3.0 0.00 0.01 0.00 95 1014.0
20260903173546 72 17 0.0 2.0 0.00 0.01 0.00 95 1013.8
20260903173106 72 0 0.0 2.0 0.00 0.01 0.00 95 1013.6
20260903172546 72 0 0.0 2.0 0.00 0.01 0.00 95 1013.3
20260903172045 72 0 0.0 4.0 0.00 0.01 0.00 94 1013.4
20260903171604 71 0 0.0 4.0 0.00 0.01 0.00 94 1013.4
20260903171047 71 0 0.0 0.0 0.00 0.01 0.00 94 1013.6
20260903170546 71 0 0.0 2.0 0.00 0.01 0.00 93 1013.9
20260903170108 71 0 0.0 2.0 0.00 0.01 0.00 93 1014.9
20260903165546 71 0 0.0 1.0 0.00 0.01 0.00 93 1015.2
20260903165046 71 0 0.0 1.0 0.00 0.01 0.00 93 1015.5
20260903164559 71 161 0.0 1.0 0.00 0.01 0.00 92 1015.7
20260903164046 71 0 0.0 0.0 0.00 0.01 0.00 92 1016.0
20260903163544 71 0 0.0 0.0 0.00 0.01 0.00 92 1016.3
20260903163056 71 0 0.0 1.0 0.00 0.01 0.00 92 1016.5
20260903162546 72 0 0.0 7.0 0.00 0.01 0.00 92 1016.6
20260903162045 72 0 1.0 12.0 0.00 0.01 0.00 92 1016.9
20260903161603 72 182 7.0 12.0 0.00 0.01 0.00 92 1017.4
20260903161046 72 192 4.0 7.0 0.00 0.01 0.00 91 1017.5
20260903160546 71 184 0.0 2.0 0.00 0.01 0.00 89 1017.2
20260903160107 72 0 0.0 4.0 0.00 0.01 0.00 88 1017.0
20260903155546 72 0 0.0 10.0 0.00 0.01 0.00 87 1016.6
20260903155046 72 0 1.0 10.0 0.00 0.01 0.00 87 1016.3
20260903154605 73 84 3.0 10.0 0.00 0.01 0.00 85 1016.0
20260903154046 73 37 0.0 5.0 0.00 0.01 0.00 83 1016.4
20260903153546 73 0 2.0 5.0 0.00 0.01 0.00 83 1016.2
20260903153103 74 40 2.0 4.0 0.00 0.01 0.00 81 1015.3
20260903152546 74 40 1.0 6.0 0.00 0.01 0.00 80 1015.5
20260903152045 74 0 0.0 7.0 0.00 0.01 0.00 78 1015.9
20260903151600 74 0 1.0 7.0 0.00 0.01 0.00 77 1015.8
20260903151045 74 0 1.0 4.0 0.00 0.01 0.00 76 1015.6
20260903150546 74 54 1.0 3.0 0.00 0.01 0.00 76 1015.7
20260903150118 74 0 0.0 4.0 0.00 0.01 0.00 76 1015.2
20260903145546 74 15 0.0 4.0 0.00 0.01 0.00 76 1014.7
20260903145047 74 5 0.0 4.0 0.00 0.01 0.00 76 1014.9
20260903144606 74 0 1.0 4.0 0.00 0.01 0.00 76 1014.9
20260903144047 74 350 1.0 4.0 0.00 0.01 0.00 76 1014.9
20260903143545 75 51 0.0 5.0 0.00 0.01 0.00 76 1014.9
20260903143105 75 5 1.0 6.0 0.00 0.01 0.00 76 1015.0
20260903142549 75 313 2.0 8.0 0.00 0.01 0.00 76 1014.8
20260903142046 75 36 2.0 8.0 0.00 0.01 0.00 77 1014.7
20260903141559 75 0 1.0 8.0 0.00 0.01 0.00 78 1015.0
20260903141049 75 0 1.0 5.0 0.00 0.01 0.00 78 1014.9
20260903140547 74 0 0.0 7.0 0.00 0.01 0.00 80 1014.9
20260903140114 74 21 1.0 7.0 0.00 0.01 0.00 82 1014.8
20260903135547 74 355 2.0 8.0 0.00 0.01 0.00 87 1014.8
20260903135046 75 0 2.0 8.0 0.00 0.01 0.00 91 1014.9
20260903134610 75 44 1.0 5.0 0.00 0.01 0.00 94 1015.0
20260903134047 75 22 2.0 6.0 0.00 0.01 0.00 95 1014.6
20260903133547 75 0 1.0 7.0 0.00 0.01 0.00 95 1014.6
20260903133108 75 26 3.0 7.0 0.00 0.01 0.00 96 1014.5
20260903132548 75 0 0.0 1.0 0.00 0.01 0.00 96 1013.9
20260903132045 75 0 0.0 0.0 0.00 0.01 0.00 96 1013.4
20260903131601 75 0 0.0 0.0 0.00 0.01 0.00 96 1013.2
20260903131045 75 0 0.0 0.0 0.00 0.01 0.00 96 1013.1
20260903130545 74 0 0.0 1.0 0.00 0.01 0.00 96 1013.1
20260903125546 74 0 0.0 4.0 0.00 0.01 0.00 96 1012.8
20260903125046 74 188 2.0 4.0 0.00 0.01 0.00 96 1012.8
20260903124557 74 188 0.0 2.0 0.00 0.01 0.00 95 1012.8
20260903124045 74 0 0.0 1.0 0.00 0.01 0.00 95 1012.8
20260903123549 74 0 0.0 1.0 0.00 0.01 0.00 95 1012.9
20260903123101 74 0 0.0 1.0 0.00 0.01 0.00 95 1012.9
20260903122546 73 0 0.0 1.0 0.00 0.01 0.00 95 1012.8
20260903122046 73 0 0.0 1.0 0.00 0.01 0.00 95 1013.0
20260903121558 73 0 0.0 0.0 0.00 0.01 0.00 95 1012.9
20260903121046 73 0 0.0 0.0 0.00 0.01 0.00 94 1012.9
20260903120545 73 0 0.0 0.0 0.00 0.01 0.00 94 1013.0
20260903120106 73 0 0.0 0.0 0.00 0.01 0.00 94 1012.9
20260903115546 73 0 0.0 0.0 0.00 0.01 0.00 94 1013.0
20260903115049 73 0 0.0 0.0 0.00 0.01 0.00 94 1013.0
20260903114558 73 0 0.0 0.0 0.00 0.01 0.00 94 1013.0
20260903114045 73 0 0.0 0.0 0.00 0.01 0.00 94 1013.0
20260903113550 73 0 0.0 0.0 0.00 0.01 0.00 94 1013.1
20260903113056 73 0 0.0 0.0 0.00 0.01 0.00 94 1013.1
20260903112548 73 0 0.0 0.0 0.00 0.01 0.00 94 1013.1
20260903112045 73 0 0.0 0.0 0.00 0.01 0.00 94 1013.0
20260903111558 73 0 0.0 0.0 0.00 0.01 0.00 94 1013.0
20260903111046 73 0 0.0 0.0 0.00 0.01 0.00 94 1012.9
20260903110546 73 0 0.0 0.0 0.00 0.01 0.00 94 1013.0
20260903105547 73 0 0.0 0.0 0.00 0.01 0.00 94 1013.0
20260903105048 73 0 0.0 0.0 0.00 0.01 0.00 94 1012.9
20260903104559 73 0 0.0 0.0 0.00 0.01 0.00 94 1013.0
20260903104045 73 0 0.0 0.0 0.00 0.01 0.00 94 1012.9
20260903103546 73 0 0.0 0.0 0.00 0.01 0.00 94 1012.9
20260903103105 73 0 0.0 0.0 0.00 0.01 0.00 94 1013.0
20260903102546 73 0 0.0 0.0 0.00 0.01 0.00 94 1012.9
20260903102050 74 0 0.0 0.0 0.00 0.01 0.00 94 1013.0
20260903101603 74 0 0.0 0.0 0.00 0.01 0.00 94 1013.0
20260903101045 74 0 0.0 0.0 0.00 0.01 0.00 94 1013.0
20260903100545 74 0 0.0 0.0 0.00 0.01 0.00 94 1013.0
20260903095545 74 0 0.0 0.0 0.00 0.01 0.00 94 1013.0
20260903095046 74 0 0.0 0.0 0.00 0.01 0.00 94 1013.1
20260903094608 74 0 0.0 0.0 0.00 0.01 0.00 94 1013.2
20260903094045 74 0 0.0 0.0 0.00 0.01 0.00 94 1013.2
20260903093545 75 0 0.0 0.0 0.00 0.01 0.00 94 1013.1
20260903093129 75 0 0.0 0.0 0.00 0.01 0.00 94 1013.1
20260903092546 75 0 0.0 0.0 0.00 0.01 0.00 94 1013.1
20260903092046 75 0 0.0 0.0 0.00 0.01 0.00 94 1013.0
20260903091601 75 0 0.0 0.0 0.00 0.01 0.00 94 1013.0
20260903091046 75 0 0.0 0.0 0.00 0.01 0.00 95 1013.0
20260903090545 75 0 0.0 0.0 0.00 0.01 0.00 94 1013.0
20260903090058 75 0 0.0 0.0 0.00 0.01 0.00 94 1013.0
20260903085545 75 0 0.0 0.0 0.00 0.01 0.00 94 1013.0
20260903085046 75 0 0.0 0.0 0.00 0.01 0.00 94 1013.0
20260903084603 75 0 0.0 0.0 0.00 0.01 0.00 94 1013.0
20260903084047 75 0 0.0 0.0 0.00 0.01 0.00 94 1013.0
20260903083546 75 0 0.0 0.0 0.00 0.01 0.00 94 1013.0
20260903083102 74 0 0.0 0.0 0.00 0.01 0.00 94 1013.0
20260903082545 74 0 0.0 0.0 0.00 0.01 0.00 93 1013.1
20260903082045 74 0 0.0 0.0 0.00 0.01 0.00 93 1013.3
20260903081558 74 0 0.0 0.0 0.00 0.01 0.00 93 1013.1
20260903081046 74 0 0.0 0.0 0.00 0.01 0.00 93 1013.1
20260903080546 74 0 0.0 0.0 0.00 0.01 0.00 93 1013.1
20260903080110 75 0 0.0 0.0 0.00 0.01 0.00 93 1013.2
20260903075546 75 0 0.0 0.0 0.00 0.01 0.00 93 1013.1
20260903075045 75 0 0.0 0.0 0.00 0.01 0.00 93 1013.1
20260903074625 75 0 0.0 0.0 0.00 0.01 0.00 93 1013.1
20260903074046 75 0 0.0 0.0 0.00 0.01 0.00 93 1013.2
20260903073559 75 0 0.0 0.0 0.00 0.01 0.00 93 1013.0
20260903073110 75 0 0.0 0.0 0.00 0.01 0.00 93 1013.1
20260903072545 75 0 0.0 0.0 0.00 0.01 0.00 93 1013.1
20260903072045 75 0 0.0 0.0 0.00 0.01 0.00 93 1013.1
20260903071607 75 0 0.0 0.0 0.00 0.01 0.00 93 1013.0
20260903071046 75 0 0.0 0.0 0.00 0.01 0.00 93 1013.1
20260903070547 75 0 0.0 0.0 0.00 0.01 0.00 93 1013.1
20260903070057 75 0 0.0 0.0 0.00 0.01 0.00 93 1013.0
20260903065547 75 0 0.0 0.0 0.00 0.01 0.00 93 1013.0
20260903065046 75 0 0.0 0.0 0.00 0.01 0.00 93 1013.1
20260903064558 75 0 0.0 0.0 0.00 0.01 0.00 92 1013.3
20260903064045 75 0 0.0 0.0 0.00 0.01 0.00 92 1013.2
20260903063545 75 0 0.0 0.0 0.00 0.01 0.00 92 1013.4
20260903063057 75 0 0.0 0.0 0.00 0.01 0.00 92 1013.3
20260903062546 75 0 0.0 0.0 0.00 0.01 0.00 92 1013.4
20260903062045 75 0 0.0 0.0 0.00 0.01 0.00 92 1013.3
20260903061559 75 0 0.0 0.0 0.00 0.01 0.00 92 1013.4
20260903061045 75 0 0.0 0.0 0.00 0.01 0.00 91 1013.4
20260903060547 75 0 0.0 0.0 0.00 0.01 0.00 91 1013.3
20260903055546 75 0 0.0 0.0 0.00 0.01 0.00 91 1013.2
20260903055045 75 0 0.0 0.0 0.00 0.01 0.00 91 1013.3
20260903054601 75 0 0.0 0.0 0.00 0.01 0.00 91 1013.3
20260903054045 75 0 0.0 0.0 0.00 0.01 0.00 91 1013.3
20260903053544 75 0 0.0 0.0 0.00 0.01 0.00 91 1013.4
20260903053058 76 0 0.0 0.0 0.00 0.01 0.00 91 1013.3
20260903052547 76 0 0.0 0.0 0.00 0.01 0.00 91 1013.3
20260903052045 76 0 0.0 0.0 0.00 0.01 0.00 91 1013.3
20260903051601 76 0 0.0 0.0 0.00 0.01 0.00 91 1013.4
20260903051045 76 0 0.0 0.0 0.00 0.01 0.00 91 1013.4
20260903050545 76 0 0.0 0.0 0.00 0.01 0.00 91 1013.3
20260903050100 76 0 0.0 0.0 0.00 0.01 0.00 91 1013.3
20260903045545 76 0 0.0 0.0 0.00 0.01 0.01 90 1013.3
20260903045045 76 0 0.0 0.0 0.00 0.01 0.01 90 1013.3
20260903044557 77 0 0.0 0.0 0.00 0.01 0.01 90 1013.3
20260903044047 77 0 0.0 0.0 0.00 0.01 0.01 90 1013.2
20260903043545 77 0 0.0 0.0 0.00 0.01 0.01 90 1013.1
20260903043102 77 0 0.0 0.0 0.00 0.01 0.01 90 1013.1
20260903042547 77 0 0.0 0.0 0.00 0.01 0.01 90 1012.9
20260903042045 77 0 0.0 0.0 0.00 0.01 0.01 89 1012.8
20260903041556 77 0 0.0 0.0 0.00 0.01 0.01 89 1012.8
20260903041051 77 0 0.0 0.0 0.00 0.01 0.01 89 1012.7
20260903040545 77 0 0.0 0.0 0.00 0.01 0.01 89 1012.7
20260903040057 77 0 0.0 0.0 0.01 0.01 0.01 89 1012.8
20260903035545 77 0 0.0 0.0 0.01 0.01 0.01 89 1012.8
20260903035045 77 0 0.0 0.0 0.01 0.01 0.01 89 1012.8
20260903034606 77 0 0.0 0.0 0.01 0.01 0.01 89 1012.8
20260903034046 78 0 0.0 0.0 0.01 0.01 0.01 89 1012.8
20260903033545 78 0 0.0 0.0 0.01 0.01 0.01 89 1012.9
20260903033116 78 0 0.0 0.0 0.01 0.01 0.01 88 1012.9
20260903032546 78 0 0.0 0.0 0.01 0.01 0.01 88 1012.9
20260903032046 78 0 0.0 0.0 0.01 0.01 0.01 88 1013.0
20260903031635 78 0 0.0 0.0 0.01 0.01 0.01 88 1012.8
20260903031045 78 0 0.0 0.0 0.01 0.01 0.01 88 1012.9
20260903030546 78 0 0.0 0.0 0.01 0.01 0.01 88 1013.0
20260903025545 79 0 0.0 0.0 0.00 0.00 0.00 87 1013.0
20260903025046 79 0 0.0 0.0 0.00 0.00 0.00 87 1013.0
20260903024558 79 0 0.0 0.0 0.00 0.00 0.00 87 1013.0
20260903024045 79 0 0.0 0.0 0.00 0.00 0.00 87 1013.0
20260903023548 79 0 0.0 0.0 0.00 0.00 0.00 87 1013.0
20260903023107 79 0 0.0 0.0 0.00 0.00 0.00 87 1013.0
20260903022548 80 0 0.0 0.0 0.00 0.00 0.00 87 1013.0
20260903022045 80 0 0.0 0.0 0.00 0.00 0.00 87 1013.0
20260903021558 80 0 0.0 0.0 0.00 0.00 0.00 86 1012.9
20260903021045 80 0 0.0 0.0 0.00 0.00 0.00 86 1012.8
20260903020544 80 0 0.0 0.0 0.00 0.00 0.00 86 1013.0
20260903020055 80 0 0.0 0.0 0.00 0.00 0.00 86 1012.9
20260903015545 81 0 0.0 0.0 0.00 0.00 0.00 86 1012.8
20260903015047 81 0 0.0 0.0 0.00 0.00 0.00 85 1012.7
20260903014602 81 0 0.0 0.0 0.00 0.00 0.00 86 1012.7
20260903014046 81 0 0.0 0.0 0.00 0.00 0.00 86 1012.7
20260903013545 82 0 0.0 0.0 0.00 0.00 0.00 86 1012.7
20260903013056 82 0 0.0 0.0 0.00 0.00 0.00 85 1012.6
20260903012547 82 0 0.0 0.0 0.00 0.00 0.00 84 1012.5
20260903012045 82 0 0.0 0.0 0.00 0.00 0.00 82 1012.3
20260903011602 82 0 0.0 0.0 0.00 0.00 0.00 82 1012.3
20260903011048 83 0 0.0 0.0 0.00 0.00 0.00 82 1012.2
20260903010544 83 0 0.0 0.0 0.00 0.00 0.00 81 1012.2
20260903010105 83 0 0.0 0.0 0.00 0.00 0.00 81 1012.3
20260903005542 83 0 0.0 0.0 0.00 0.00 0.00 81 1012.1
20260903005042 84 0 0.0 0.0 0.00 0.00 0.00 80 1012.0
20260903004602 84 0 0.0 0.0 0.00 0.00 0.00 80 1012.0
20260903004045 84 0 0.0 0.0 0.00 0.00 0.00 80 1012.0
20260903003545 84 0 0.0 0.0 0.00 0.00 0.00 80 1012.0
20260903003103 85 0 0.0 0.0 0.00 0.00 0.00 79 1012.0
20260903002544 85 0 0.0 0.0 0.00 0.00 0.00 79 1012.0
20260903002044 85 0 0.0 0.0 0.00 0.00 0.00 79 1012.1
20260903001605 85 0 0.0 0.0 0.00 0.00 0.00 79 1012.0
20260903001043 85 0 0.0 0.0 0.00 0.00 0.00 79 1012.1
20260903000545 85 0 0.0 0.0 0.00 0.00 0.00 79 1012.1
20260903000100 86 0 0.0 0.0 0.00 0.00 0.00 79 1012.2
20260902235545 86 0 0.0 0.0 0.00 0.00 0.00 79 1012.2
20260902235047 86 0 0.0 0.0 0.00 0.00 0.00 79 1012.3
20260902234606 86 0 0.0 0.0 0.00 0.00 0.00 79 1012.2
20260902234044 86 0 0.0 0.0 0.00 0.00 0.00 79 1012.3
20260902233547 86 0 0.0 0.0 0.00 0.00 0.00 79 1012.3
20260902233102 86 0 0.0 0.0 0.00 0.00 0.00 79 1012.3
20260902232544 86 0 0.0 0.0 0.00 0.00 0.00 78 1012.1
20260902232043 87 0 0.0 0.0 0.00 0.00 0.00 78 1012.2
20260902231610 87 0 0.0 0.0 0.00 0.00 0.00 78 1012.2
20260902231047 87 0 0.0 0.0 0.00 0.00 0.00 77 1012.1
20260902230543 87 0 0.0 0.0 0.00 0.00 0.00 77 1012.1
20260902230059 87 0 0.0 0.0 0.00 0.00 0.00 76 1012.2
20260902225547 87 0 0.0 0.0 0.00 0.00 0.00 76 1012.2
20260902225043 87 0 0.0 0.0 0.00 0.00 0.00 75 1012.2
20260902224605 87 0 0.0 0.0 0.00 0.00 0.00 75 1012.3
20260902224042 88 0 0.0 0.0 0.00 0.00 0.00 74 1012.3
20260902223542 88 0 0.0 0.0 0.00 0.00 0.00 74 1012.2
20260902223101 88 0 0.0 0.0 0.00 0.00 0.00 73 1012.2
20260902222545 88 0 0.0 0.0 0.00 0.00 0.00 72 1012.3
20260902222043 88 0 0.0 0.0 0.00 0.00 0.00 72 1012.5
20260902221600 88 0 0.0 0.0 0.00 0.00 0.00 72 1012.6
20260902221043 88 0 0.0 0.0 0.00 0.00 0.00 72 1012.4
20260902220544 88 0 0.0 0.0 0.00 0.00 0.00 72 1012.3
20260902220100 88 0 0.0 0.0 0.00 0.00 0.00 71 1012.3
20260902215545 89 0 0.0 0.0 0.00 0.00 0.00 70 1012.3
20260902215042 89 0 0.0 0.0 0.00 0.00 0.00 71 1012.4
20260902214556 89 0 0.0 0.0 0.00 0.00 0.00 70 1012.3
20260902214041 89 0 0.0 0.0 0.00 0.00 0.00 70 1012.4
20260902213543 89 0 0.0 0.0 0.00 0.00 0.00 69 1012.4
20260902213105 89 0 0.0 0.0 0.00 0.00 0.00 69 1012.6
20260902212544 90 0 0.0 0.0 0.00 0.00 0.00 68 1012.5
20260902212048 90 0 0.0 0.0 0.00 0.00 0.00 67 1012.5
20260902211600 90 0 0.0 0.0 0.00 0.00 0.00 66 1012.6
20260902211042 90 0 0.0 0.0 0.00 0.00 0.00 66 1012.5
20260902210542 91 0 0.0 0.0 0.00 0.00 0.00 66 1012.6
20260902205541 91 0 0.0 0.0 0.00 0.00 0.00 65 1012.7
20260902205044 91 0 0.0 0.0 0.00 0.00 0.00 64 1012.7
20260902204602 92 0 0.0 0.0 0.00 0.00 0.00 64 1012.5
20260902204044 92 0 0.0 0.0 0.00 0.00 0.00 64 1012.5
20260902203544 91 0 0.0 0.0 0.00 0.00 0.00 65 1012.5
20260902203122 91 0 0.0 0.0 0.00 0.00 0.00 65 1012.5
20260902202543 91 0 0.0 0.0 0.00 0.00 0.00 65 1012.4
20260902202043 91 0 0.0 0.0 0.00 0.00 0.00 64 1012.5
20260902201554 91 0 0.0 0.0 0.00 0.00 0.00 64 1012.5
20260902201042 90 0 0.0 0.0 0.00 0.00 0.00 65 1012.5
20260902200543 90 0 0.0 0.0 0.00 0.00 0.00 67 1012.7
20260902200100 90 0 0.0 0.0 0.00 0.00 0.00 64 1012.7
20260902195545 90 0 0.0 0.0 0.00 0.00 0.00 65 1012.8
20260902195044 90 0 0.0 0.0 0.00 0.00 0.00 68 1012.7
20260902194559 90 0 0.0 0.0 0.00 0.00 0.00 67 1012.7
20260902194044 91 0 0.0 7.0 0.00 0.00 0.00 66 1012.7
20260902193545 91 0 0.0 7.0 0.00 0.00 0.00 66 1012.7
20260902193102 92 0 0.0 0.0 0.00 0.00 0.00 66 1012.8
20260902192541 92 0 0.0 0.0 0.00 0.00 0.00 65 1013.0
20260902192045 91 0 0.0 0.0 0.00 0.00 0.00 67 1012.9
20260902191559 91 0 0.0 0.0 0.00 0.00 0.00 65 1012.8
20260902191041 91 0 0.0 0.0 0.00 0.00 0.00 66 1013.0
20260902190541 91 0 0.0 0.0 0.00 0.00 0.00 67 1013.0
20260902190100 90 0 0.0 0.0 0.00 0.00 0.00 69 1013.2
20260902185619 90 0 0.0 0.0 0.00 0.00 0.00 68 1013.1
20260902185046 90 0 0.0 0.0 0.00 0.00 0.00 69 1013.1
20260902184603 89 0 0.0 0.0 0.00 0.00 0.00 71 1013.1
20260902184046 88 0 0.0 0.0 0.00 0.00 0.00 71 1013.1
20260902183547 88 0 0.0 0.0 0.00 0.00 0.00 71 1013.1
20260902183120 87 0 0.0 0.0 0.00 0.00 0.00 73 1013.2